Regional Weather Roundup
Issued by NWS

Home | Current Version | Previous Version | Text Only | Print | Product List | Glossary Off
Versions: 1 2 3 4 5 6 7 8 9 10 11 12 13 14 15 16 17 18 19 20 21 22 23 24 25 26 27 28 29 30 31 32 33 34 35 36 37 38 39 40 41 42 43 44 45 46 47 48 49 50

000
ASUS45 KBOI 260110
RWRID
WEATHER ROUNDUP FOR IDAHO
NATIONAL WEATHER SERVICE BOISE ID
700 PM MDT WED MAR 25 2015

NOTE: "FAIR" INDICATES FEW OR NO CLOUDS BELOW 12000 FEET
WITH NO SIGNIFICANT WEATHER AND/OR OBSTRUCTIONS TO VISIBILITY

IDZ012-014-260200-
SOUTHWEST IDAHO


CITY           SKY/WX    TMP DP  RH WIND       PRES   REMARKS
BOISE          CLOUDY    53  34  48 N8        30.37R
CALDWELL       PTSUNNY   54  32  43 N10       30.39R
MOUNTAIN HOME  PTSUNNY   55  32  41 N13       30.35R
$$

IDZ016-017-260200-
SOUTHCENTRAL IDAHO


CITY           SKY/WX    TMP DP  RH WIND       PRES   REMARKS
BURLEY         CLOUDY    50  24  36 W12G20    30.32S
JEROME         CLOUDY    50  27  40 W13       30.34S
TWIN FALLS     CLOUDY    51  29  42 W9        30.34S
$$

IDZ019>023-260200-
SOUTHEAST IDAHO


CITY           SKY/WX    TMP DP  RH WIND       PRES   REMARKS
IDAHO FALLS    MOCLDY    47  20  34 S15       30.31R
POCATELLO      PTCLDY    48  18  30 SW15      30.33S
REXBURG        MOCLDY    44  21  40 S14       30.30R
$$

IDZ006-010-011-018-031-032-260200-
CENTRAL IDAHO MOUNTAINS


CITY           SKY/WX    TMP DP  RH WIND       PRES   REMARKS
MCCALL         CLOUDY    38  31  76 N5        30.37R WCI  34
HAILEY         PTCLDY    48  27  43 W6        30.31S
STANLEY          N/A     39  26  59 N7        30.35R WCI  34
SALMON         CLOUDY    52  21  30 NW7       30.26S
CHALLIS        CLOUDY    50  23  34 W12       30.27R
$$

IDZ002-004-006-007-026-260200-
NORTHERN IDAHO


CITY           SKY/WX    TMP DP  RH WIND       PRES   REMARKS
LEWISTON       LGT RAIN  52  43  71 S10       30.32S
LOWELL           N/A     49  44  83 CALM      30.37R
COEUR D`ALENE  CLOUDY    45  39  81 S10       30.30S
MULLAN PASS    MIX PCPN  30  30 100 VRB6      30.25R VSB 1/4 WCI  24
$$


USA.gov is the U.S. government's official web portal to all federal, state and local government web resources and services.